Year,Month,Day,Hour,Minute,Value (Times are PST for temperature in C)
2017,04,25,00,00,10.10
2017,04,25,00,01,10.00
2017,04,25,00,02,9.80
2017,04,25,00,03,9.70
2017,04,25,00,04,9.70
2017,04,25,00,05,9.60
2017,04,25,00,06,9.50
2017,04,25,00,07,9.50
2017,04,25,00,08,9.40
2017,04,25,00,09,9.40
2017,04,25,00,10,9.40
2017,04,25,00,11,9.40
2017,04,25,00,12,9.50
2017,04,25,00,13,9.50
2017,04,25,00,14,9.60
2017,04,25,00,15,9.60
2017,04,25,00,16,9.70
2017,04,25,00,17,9.80
2017,04,25,00,18,9.80
2017,04,25,00,19,9.80
2017,04,25,00,20,9.80
2017,04,25,00,21,9.80
2017,04,25,00,22,9.90
2017,04,25,00,23,9.90
2017,04,25,00,24,9.90
2017,04,25,00,25,9.90
2017,04,25,00,26,9.90
2017,04,25,00,27,9.80
2017,04,25,00,28,9.80
2017,04,25,00,29,9.80
2017,04,25,00,30,9.70
2017,04,25,00,31,9.70
2017,04,25,00,32,9.60
2017,04,25,00,33,9.60
2017,04,25,00,34,9.50
2017,04,25,00,35,9.50
2017,04,25,00,36,9.40
2017,04,25,00,37,9.40
2017,04,25,00,38,9.30
2017,04,25,00,39,9.20
2017,04,25,00,40,9.10
2017,04,25,00,41,9.10
2017,04,25,00,42,9.00
2017,04,25,00,43,8.90
2017,04,25,00,44,8.80
2017,04,25,00,45,8.80
2017,04,25,00,46,8.70
2017,04,25,00,47,8.70
2017,04,25,00,48,8.60
2017,04,25,00,49,8.50
2017,04,25,00,50,8.40
2017,04,25,00,51,8.40
2017,04,25,00,52,8.40
2017,04,25,00,53,8.40
2017,04,25,00,54,8.30
2017,04,25,00,55,8.40
2017,04,25,00,56,8.40
2017,04,25,00,57,8.30
2017,04,25,00,58,8.30
2017,04,25,00,59,8.30
2017,04,25,01,00,8.30
2017,04,25,01,01,8.40
2017,04,25,01,02,8.40
2017,04,25,01,03,8.50
2017,04,25,01,04,8.70
2017,04,25,01,05,8.80
2017,04,25,01,06,8.80
2017,04,25,01,07,8.80
2017,04,25,01,08,8.90
2017,04,25,01,09,8.90
2017,04,25,01,10,8.90
2017,04,25,01,11,8.90
2017,04,25,01,12,8.90
2017,04,25,01,13,8.90
2017,04,25,01,14,8.80
2017,04,25,01,15,8.80
2017,04,25,01,16,8.70
2017,04,25,01,17,8.70
2017,04,25,01,18,8.60
2017,04,25,01,19,8.60
2017,04,25,01,20,8.50
2017,04,25,01,21,8.50
2017,04,25,01,22,8.40
2017,04,25,01,23,8.40
2017,04,25,01,24,8.40
2017,04,25,01,25,8.40
2017,04,25,01,26,8.40
2017,04,25,01,27,8.40
2017,04,25,01,28,8.30
2017,04,25,01,29,8.30
2017,04,25,01,30,8.30
2017,04,25,01,31,8.30
2017,04,25,01,32,8.30
2017,04,25,01,33,8.30
2017,04,25,01,34,8.30
2017,04,25,01,35,8.30
2017,04,25,01,36,8.30
2017,04,25,01,37,8.30
2017,04,25,01,38,8.20
2017,04,25,01,39,8.20
2017,04,25,01,40,8.20
2017,04,25,01,41,8.20
2017,04,25,01,42,8.20
2017,04,25,01,43,8.10
2017,04,25,01,44,8.10
2017,04,25,01,45,8.10
2017,04,25,01,46,8.10
2017,04,25,01,47,8.10
2017,04,25,01,48,8.10
2017,04,25,01,49,8.10
2017,04,25,01,50,8.10
2017,04,25,01,51,8.10
2017,04,25,01,52,8.10
2017,04,25,01,53,8.10
2017,04,25,01,54,8.00
2017,04,25,01,55,8.10
2017,04,25,01,56,8.10
2017,04,25,01,57,8.10
2017,04,25,01,58,8.10
2017,04,25,01,59,8.10
2017,04,25,02,00,8.10
2017,04,25,02,01,8.10
2017,04,25,02,02,8.00
2017,04,25,02,03,8.00
2017,04,25,02,04,8.00
2017,04,25,02,05,7.90
2017,04,25,02,06,7.90
2017,04,25,02,07,7.90
2017,04,25,02,08,7.80
2017,04,25,02,09,7.80
2017,04,25,02,10,7.80
2017,04,25,02,11,7.80
2017,04,25,02,12,7.80
2017,04,25,02,13,7.70
2017,04,25,02,14,7.70
2017,04,25,02,15,7.70
2017,04,25,02,16,7.70
2017,04,25,02,17,7.60
2017,04,25,02,18,7.60
2017,04,25,02,19,7.60
2017,04,25,02,20,7.60
2017,04,25,02,21,7.60
2017,04,25,02,22,7.70
2017,04,25,02,23,7.70
2017,04,25,02,24,7.70
2017,04,25,02,25,7.70
2017,04,25,02,26,7.70
2017,04,25,02,27,7.70
2017,04,25,02,28,7.70
2017,04,25,02,29,7.70
2017,04,25,02,30,7.70
2017,04,25,02,31,7.70
2017,04,25,02,32,7.70
2017,04,25,02,33,7.70
2017,04,25,02,34,7.70
2017,04,25,02,35,7.70
2017,04,25,02,36,7.80
2017,04,25,02,37,7.80
2017,04,25,02,38,7.90
2017,04,25,02,39,7.90
2017,04,25,02,40,8.00
2017,04,25,02,41,8.10
2017,04,25,02,42,8.20
2017,04,25,02,43,8.30
2017,04,25,02,44,8.40
2017,04,25,02,45,8.50
2017,04,25,02,46,8.60
2017,04,25,02,47,8.60
2017,04,25,02,48,8.70
2017,04,25,02,49,8.70
2017,04,25,02,50,8.70
2017,04,25,02,51,8.60
2017,04,25,02,52,8.50
2017,04,25,02,53,8.50
2017,04,25,02,54,8.40
2017,04,25,02,55,8.40
2017,04,25,02,56,8.30
2017,04,25,02,57,8.30
2017,04,25,02,58,8.20
2017,04,25,02,59,8.20
2017,04,25,03,00,8.10
2017,04,25,03,01,8.00
2017,04,25,03,02,8.00
2017,04,25,03,03,7.90
2017,04,25,03,04,7.90
2017,04,25,03,05,7.80
2017,04,25,03,06,7.80
2017,04,25,03,07,7.70
2017,04,25,03,08,7.70
2017,04,25,03,09,7.60
2017,04,25,03,10,7.60
2017,04,25,03,11,7.50
2017,04,25,03,12,7.50
2017,04,25,03,13,7.40
2017,04,25,03,14,7.40
2017,04,25,03,15,7.40
2017,04,25,03,16,7.40
2017,04,25,03,17,7.30
2017,04,25,03,18,7.30
2017,04,25,03,19,7.30
2017,04,25,03,20,7.30
2017,04,25,03,21,7.30
2017,04,25,03,22,7.30
2017,04,25,03,23,7.20
2017,04,25,03,24,7.20
2017,04,25,03,25,7.20
2017,04,25,03,26,7.20
2017,04,25,03,27,7.20
2017,04,25,03,28,7.20
2017,04,25,03,29,7.10
2017,04,25,03,30,7.10
2017,04,25,03,31,7.10
2017,04,25,03,32,7.10
2017,04,25,03,33,7.10
2017,04,25,03,34,7.10
2017,04,25,03,35,7.10
2017,04,25,03,36,7.10
2017,04,25,03,37,7.00
2017,04,25,03,38,7.00
2017,04,25,03,39,7.00
2017,04,25,03,40,7.00
2017,04,25,03,41,7.10
2017,04,25,03,42,7.10
2017,04,25,03,43,7.10
2017,04,25,03,44,7.10
2017,04,25,03,45,7.10
2017,04,25,03,46,7.10
2017,04,25,03,47,7.10
2017,04,25,03,48,7.10
2017,04,25,03,49,7.10
2017,04,25,03,50,7.10
2017,04,25,03,51,7.00
2017,04,25,03,52,7.00
2017,04,25,03,53,7.00
2017,04,25,03,54,7.00
2017,04,25,03,55,7.00
2017,04,25,03,56,7.00
2017,04,25,03,57,7.00
2017,04,25,03,58,7.00
2017,04,25,03,59,7.00
2017,04,25,04,00,7.00
2017,04,25,04,01,7.00
2017,04,25,04,02,7.00
2017,04,25,04,03,7.10
2017,04,25,04,04,7.30
2017,04,25,04,05,7.50
2017,04,25,04,06,7.70
2017,04,25,04,07,7.90
2017,04,25,04,08,8.00
2017,04,25,04,09,8.20
2017,04,25,04,10,8.30
2017,04,25,04,11,8.40
2017,04,25,04,12,8.50
2017,04,25,04,13,8.60
2017,04,25,04,14,8.70
2017,04,25,04,15,8.70
2017,04,25,04,16,8.80
2017,04,25,04,17,8.80
2017,04,25,04,18,8.90
2017,04,25,04,19,8.90
2017,04,25,04,20,9.00
2017,04,25,04,21,9.00
2017,04,25,04,22,9.10
2017,04,25,04,23,9.10
2017,04,25,04,24,9.10
2017,04,25,04,25,9.10
2017,04,25,04,26,9.20
2017,04,25,04,27,9.20
2017,04,25,04,28,9.10
2017,04,25,04,29,9.10
2017,04,25,04,30,9.10
2017,04,25,04,31,9.10
2017,04,25,04,32,9.00
2017,04,25,04,33,9.00
2017,04,25,04,34,9.00
2017,04,25,04,35,9.00
2017,04,25,04,36,8.90
2017,04,25,04,37,8.90
2017,04,25,04,38,8.90
2017,04,25,04,39,8.80
2017,04,25,04,40,8.80
2017,04,25,04,41,8.80
2017,04,25,04,42,8.80
2017,04,25,04,43,8.80
2017,04,25,04,44,8.80
2017,04,25,04,45,8.80
2017,04,25,04,46,8.80
2017,04,25,04,47,8.80
2017,04,25,04,48,8.80
2017,04,25,04,49,8.70
2017,04,25,04,50,8.70
2017,04,25,04,51,8.70
2017,04,25,04,52,8.70
2017,04,25,04,53,8.70
2017,04,25,04,54,8.70
2017,04,25,04,55,8.60
2017,04,25,04,56,8.60
2017,04,25,04,57,8.60
2017,04,25,04,58,8.60
2017,04,25,04,59,8.70
2017,04,25,05,00,8.70
2017,04,25,05,01,8.70
2017,04,25,05,02,8.70
2017,04,25,05,03,8.70
2017,04,25,05,04,8.70
2017,04,25,05,05,8.70
2017,04,25,05,06,8.70
2017,04,25,05,07,8.70
2017,04,25,05,08,8.70
2017,04,25,05,09,8.70
2017,04,25,05,10,8.70
2017,04,25,05,11,8.70
2017,04,25,05,12,8.70
2017,04,25,05,13,8.70
2017,04,25,05,14,8.70
2017,04,25,05,15,8.70
2017,04,25,05,16,8.70
2017,04,25,05,17,8.70
2017,04,25,05,18,8.70
2017,04,25,05,19,8.70
2017,04,25,05,20,8.70
2017,04,25,05,21,8.70
2017,04,25,05,22,8.80
2017,04,25,05,23,8.80
2017,04,25,05,24,8.80
2017,04,25,05,25,8.80
2017,04,25,05,26,8.80
2017,04,25,05,27,8.80
2017,04,25,05,28,8.80
2017,04,25,05,29,8.80
2017,04,25,05,30,8.80
2017,04,25,05,31,8.80
2017,04,25,05,32,8.80
2017,04,25,05,33,8.80
2017,04,25,05,34,8.80
2017,04,25,05,35,8.80
2017,04,25,05,36,8.80
2017,04,25,05,37,8.80
2017,04,25,05,38,8.80
2017,04,25,05,39,8.80
2017,04,25,05,40,8.80
2017,04,25,05,41,8.90
2017,04,25,05,42,8.90
2017,04,25,05,43,8.90
2017,04,25,05,44,8.90
2017,04,25,05,45,8.90
2017,04,25,05,46,8.90
2017,04,25,05,47,8.90
2017,04,25,05,48,8.90
2017,04,25,05,49,8.90
2017,04,25,05,50,8.90
2017,04,25,05,51,8.90
2017,04,25,05,52,8.90
2017,04,25,05,53,8.90
2017,04,25,05,54,8.90
2017,04,25,05,55,8.90
2017,04,25,05,56,8.90
2017,04,25,05,57,8.90
2017,04,25,05,58,8.90
2017,04,25,05,59,9.00
2017,04,25,06,00,9.00
2017,04,25,06,01,9.00
2017,04,25,06,02,9.00
2017,04,25,06,03,9.00
2017,04,25,06,04,9.00
2017,04,25,06,05,9.00
2017,04,25,06,06,9.00
2017,04,25,06,07,9.00
2017,04,25,06,08,9.10
2017,04,25,06,09,9.10
2017,04,25,06,10,9.10
2017,04,25,06,11,9.10
2017,04,25,06,12,9.10
2017,04,25,06,13,9.00
2017,04,25,06,14,9.00
2017,04,25,06,15,9.00
2017,04,25,06,16,9.00
2017,04,25,06,17,9.00
2017,04,25,06,18,9.00
2017,04,25,06,19,9.00
2017,04,25,06,20,9.00
2017,04,25,06,21,9.00
2017,04,25,06,22,9.00
2017,04,25,06,23,9.00
2017,04,25,06,24,9.00
2017,04,25,06,25,9.00
2017,04,25,06,26,9.00
2017,04,25,06,27,8.90
2017,04,25,06,28,9.00
2017,04,25,06,29,8.90
2017,04,25,06,30,8.90
2017,04,25,06,31,8.90
2017,04,25,06,32,8.90
2017,04,25,06,33,8.90
2017,04,25,06,34,8.90
2017,04,25,06,35,8.90
2017,04,25,06,36,8.90
2017,04,25,06,37,8.90
2017,04,25,06,38,8.90
2017,04,25,06,39,8.70
2017,04,25,06,40,8.50
2017,04,25,06,41,8.30
2017,04,25,06,42,8.10
2017,04,25,06,43,7.90
2017,04,25,06,44,7.80
2017,04,25,06,45,7.70
2017,04,25,06,46,7.60
2017,04,25,06,47,7.50
2017,04,25,06,48,7.40
2017,04,25,06,49,7.40
2017,04,25,06,50,7.40
2017,04,25,06,51,7.40
2017,04,25,06,52,7.40
2017,04,25,06,53,7.40
2017,04,25,06,54,7.40
2017,04,25,06,55,7.40
2017,04,25,06,56,7.40
2017,04,25,06,57,7.40
2017,04,25,06,58,7.40
2017,04,25,06,59,7.30
2017,04,25,07,00,7.30
2017,04,25,07,01,7.30
2017,04,25,07,02,7.30
2017,04,25,07,03,7.30
2017,04,25,07,04,7.30
2017,04,25,07,05,7.20
2017,04,25,07,06,7.20
2017,04,25,07,07,7.20
2017,04,25,07,08,7.20
2017,04,25,07,09,7.20
2017,04,25,07,10,7.20
2017,04,25,07,11,7.20
2017,04,25,07,12,7.20
2017,04,25,07,13,7.20
2017,04,25,07,14,7.20
2017,04,25,07,15,7.20
2017,04,25,07,16,7.30
2017,04,25,07,17,7.30
2017,04,25,07,18,7.30
2017,04,25,07,19,7.40
2017,04,25,07,20,7.40
2017,04,25,07,21,7.50
2017,04,25,07,22,7.50
2017,04,25,07,23,7.60
2017,04,25,07,24,7.60
2017,04,25,07,25,7.60
2017,04,25,07,26,7.70
2017,04,25,07,27,7.70
2017,04,25,07,28,7.70
2017,04,25,07,29,7.70
2017,04,25,07,30,7.80
2017,04,25,07,31,7.80
2017,04,25,07,32,7.80
2017,04,25,07,33,7.80
2017,04,25,07,34,7.80
2017,04,25,07,35,7.90
2017,04,25,07,36,7.90
2017,04,25,07,37,7.90
2017,04,25,07,38,7.90
2017,04,25,07,39,7.90
2017,04,25,07,40,8.00
2017,04,25,07,41,8.00
2017,04,25,07,42,8.10
2017,04,25,07,43,8.10
2017,04,25,07,44,8.10
2017,04,25,07,45,8.10
2017,04,25,07,46,8.20
2017,04,25,07,47,8.20
2017,04,25,07,48,8.20
2017,04,25,07,49,8.30
2017,04,25,07,50,8.30
2017,04,25,07,51,8.40
2017,04,25,07,52,8.40
2017,04,25,07,53,8.40
2017,04,25,07,54,8.50
2017,04,25,07,55,8.50
2017,04,25,07,56,8.60
2017,04,25,07,57,8.60
2017,04,25,07,58,8.70
2017,04,25,07,59,8.70
2017,04,25,08,00,8.70
2017,04,25,08,01,8.80
2017,04,25,08,02,8.80
2017,04,25,08,03,8.80
2017,04,25,08,04,8.80
2017,04,25,08,05,8.90
2017,04,25,08,06,8.90
2017,04,25,08,07,8.90
2017,04,25,08,08,9.00
2017,04,25,08,09,9.00
2017,04,25,08,10,9.10
2017,04,25,08,11,9.10
2017,04,25,08,12,9.10
2017,04,25,08,13,9.20
2017,04,25,08,14,9.20
2017,04,25,08,15,9.20
2017,04,25,08,16,9.20
2017,04,25,08,17,9.20
2017,04,25,08,18,9.20
2017,04,25,08,19,9.30
2017,04,25,08,20,9.30
2017,04,25,08,21,9.30
2017,04,25,08,22,9.30
2017,04,25,08,23,9.30
2017,04,25,08,24,9.40
2017,04,25,08,25,9.40
2017,04,25,08,26,9.40
2017,04,25,08,27,9.40
2017,04,25,08,28,9.40
2017,04,25,08,29,9.50
2017,04,25,08,30,9.50
2017,04,25,08,31,9.50
2017,04,25,08,32,9.50
2017,04,25,08,33,9.60
2017,04,25,08,34,9.60
2017,04,25,08,35,9.70
2017,04,25,08,36,9.70
2017,04,25,08,37,9.80
2017,04,25,08,38,9.80
2017,04,25,08,39,9.90
2017,04,25,08,40,9.90
2017,04,25,08,41,10.00
2017,04,25,08,42,10.00
2017,04,25,08,43,10.10
2017,04,25,08,44,10.10
2017,04,25,08,45,10.20
2017,04,25,08,46,10.20
2017,04,25,08,47,10.30
2017,04,25,08,48,10.30
2017,04,25,08,49,10.30
2017,04,25,08,50,10.30
2017,04,25,08,51,10.30
2017,04,25,08,52,10.30
2017,04,25,08,53,10.30
2017,04,25,08,54,10.30
2017,04,25,08,55,10.30
2017,04,25,08,56,10.40
2017,04,25,08,57,10.40
2017,04,25,08,58,10.40
2017,04,25,08,59,10.40
2017,04,25,09,00,10.40
2017,04,25,09,01,10.40
2017,04,25,09,02,10.40
2017,04,25,09,03,10.40
2017,04,25,09,04,10.50
2017,04,25,09,05,10.50
2017,04,25,09,06,10.60
2017,04,25,09,07,10.70
2017,04,25,09,08,10.70
2017,04,25,09,09,10.80
2017,04,25,09,10,10.90
2017,04,25,09,11,11.00
2017,04,25,09,12,11.00
2017,04,25,09,13,11.10
2017,04,25,09,14,11.10
2017,04,25,09,15,11.10
2017,04,25,09,16,11.10
2017,04,25,09,17,11.20
2017,04,25,09,18,11.30
2017,04,25,09,19,11.40
2017,04,25,09,20,11.40
2017,04,25,09,21,11.50
2017,04,25,09,22,11.60
2017,04,25,09,23,11.60
2017,04,25,09,24,11.60
2017,04,25,09,25,11.60
2017,04,25,09,26,11.60
2017,04,25,09,27,11.60
2017,04,25,09,28,11.70
2017,04,25,09,29,11.70
2017,04,25,09,30,11.80
2017,04,25,09,31,11.80
2017,04,25,09,32,11.90
2017,04,25,09,33,11.90
2017,04,25,09,34,11.90
2017,04,25,09,35,12.00
2017,04,25,09,36,12.10
2017,04,25,09,37,12.10
2017,04,25,09,38,12.20
2017,04,25,09,39,12.10
2017,04,25,09,40,12.10
2017,04,25,09,41,12.00
2017,04,25,09,42,12.00
2017,04,25,09,43,11.90
2017,04,25,09,44,11.90
2017,04,25,09,45,11.90
2017,04,25,09,46,11.80
2017,04,25,09,47,11.80
2017,04,25,09,48,11.80
2017,04,25,09,49,11.80
2017,04,25,09,50,11.80
2017,04,25,09,51,11.90
2017,04,25,09,52,11.90
2017,04,25,09,53,12.00
2017,04,25,09,54,12.00
2017,04,25,09,55,12.00
2017,04,25,09,56,12.00
2017,04,25,09,57,12.00
2017,04,25,09,58,12.10
2017,04,25,09,59,12.00
2017,04,25,10,00,12.00
2017,04,25,10,01,12.00
2017,04,25,10,02,12.10
2017,04,25,10,03,12.10
2017,04,25,10,04,12.20
2017,04,25,10,05,12.20
2017,04,25,10,06,12.20
2017,04,25,10,07,12.20
2017,04,25,10,08,12.10
2017,04,25,10,09,12.20
2017,04,25,10,10,12.20
2017,04,25,10,11,12.20
2017,04,25,10,12,12.40
2017,04,25,10,13,12.40
2017,04,25,10,14,12.50
2017,04,25,10,15,12.50
2017,04,25,10,16,12.60
2017,04,25,10,17,12.50
2017,04,25,10,18,12.50
2017,04,25,10,19,12.50
2017,04,25,10,20,12.50
2017,04,25,10,21,12.50
2017,04,25,10,22,12.50
2017,04,25,10,23,12.40
2017,04,25,10,24,12.40
2017,04,25,10,25,12.40
2017,04,25,10,26,12.40
2017,04,25,10,27,12.30
2017,04,25,10,28,12.30
2017,04,25,10,29,12.20
2017,04,25,10,30,12.20
2017,04,25,10,31,12.10
2017,04,25,10,32,12.20
2017,04,25,10,33,12.20
2017,04,25,10,34,12.20
2017,04,25,10,35,12.20
2017,04,25,10,36,12.10
2017,04,25,10,37,12.10
2017,04,25,10,38,12.20
2017,04,25,10,39,12.20
2017,04,25,10,40,12.30
2017,04,25,10,41,12.30
2017,04,25,10,42,12.30
2017,04,25,10,43,12.30
2017,04,25,10,44,12.30
2017,04,25,10,45,12.30
2017,04,25,10,46,12.30
2017,04,25,10,47,12.30
2017,04,25,10,48,12.30
2017,04,25,10,49,12.30
2017,04,25,10,50,12.30
2017,04,25,10,51,12.30
2017,04,25,10,52,12.30
2017,04,25,10,53,12.20
2017,04,25,10,54,12.20
2017,04,25,10,55,12.20
2017,04,25,10,56,12.20
2017,04,25,10,57,12.20
2017,04,25,10,58,12.10
2017,04,25,10,59,12.10
2017,04,25,11,00,12.10
2017,04,25,11,01,12.10
2017,04,25,11,02,12.10
2017,04,25,11,03,12.20
2017,04,25,11,04,12.20
2017,04,25,11,05,12.20
2017,04,25,11,06,12.10
2017,04,25,11,07,12.20
2017,04,25,11,08,12.20
2017,04,25,11,09,12.20
2017,04,25,11,10,12.20
2017,04,25,11,11,12.10
2017,04,25,11,12,12.10
2017,04,25,11,13,12.10
2017,04,25,11,14,12.10
2017,04,25,11,15,12.20
2017,04,25,11,16,12.20
2017,04,25,11,17,12.30
2017,04,25,11,18,12.30
2017,04,25,11,19,12.30
2017,04,25,11,20,12.20
2017,04,25,11,21,12.10
2017,04,25,11,22,12.10
2017,04,25,11,23,12.00
2017,04,25,11,24,11.90
2017,04,25,11,25,11.90
2017,04,25,11,26,11.90
2017,04,25,11,27,11.90
2017,04,25,11,28,11.90
2017,04,25,11,29,11.90
2017,04,25,11,30,12.00
2017,04,25,11,31,12.10
2017,04,25,11,32,12.10
2017,04,25,11,33,12.10
2017,04,25,11,34,12.10
2017,04,25,11,35,12.10
2017,04,25,11,36,12.10
2017,04,25,11,37,12.20
2017,04,25,11,38,12.20
2017,04,25,11,39,12.30
2017,04,25,11,40,12.30
2017,04,25,11,41,12.30
2017,04,25,11,42,12.30
2017,04,25,11,43,12.30
2017,04,25,11,44,12.30
2017,04,25,11,45,12.40
2017,04,25,11,46,12.40
2017,04,25,11,47,12.40
2017,04,25,11,48,12.40
2017,04,25,11,49,12.30
2017,04,25,11,50,12.30
2017,04,25,11,51,12.20
2017,04,25,11,52,12.20
2017,04,25,11,53,12.20
2017,04,25,11,54,12.20
2017,04,25,11,55,12.10
2017,04,25,11,56,12.10
2017,04,25,11,57,12.10
2017,04,25,11,58,12.10
2017,04,25,11,59,12.20
2017,04,25,12,00,12.20
2017,04,25,12,01,12.20
2017,04,25,12,02,12.20
2017,04,25,12,03,12.20
2017,04,25,12,04,12.10
2017,04,25,12,05,12.10
2017,04,25,12,06,12.10
2017,04,25,12,07,12.00
2017,04,25,12,08,11.90
2017,04,25,12,09,11.90
2017,04,25,12,10,11.90
2017,04,25,12,11,11.90
2017,04,25,12,12,11.90
2017,04,25,12,13,11.90
2017,04,25,12,14,11.90
2017,04,25,12,15,11.90
2017,04,25,12,16,11.90
2017,04,25,12,17,11.80
2017,04,25,12,18,11.80
2017,04,25,12,19,11.80
2017,04,25,12,20,11.80
2017,04,25,12,21,11.80
2017,04,25,12,22,11.90
2017,04,25,12,23,11.90
2017,04,25,12,24,11.90
2017,04,25,12,25,11.90
2017,04,25,12,26,11.90
2017,04,25,12,27,11.90
2017,04,25,12,28,12.00
2017,04,25,12,29,11.90
2017,04,25,12,30,12.00
2017,04,25,12,31,12.00
2017,04,25,12,32,12.00
2017,04,25,12,33,12.00
2017,04,25,12,34,12.10
2017,04,25,12,35,12.10
2017,04,25,12,36,12.00
2017,04,25,12,37,12.00
2017,04,25,12,38,12.10
2017,04,25,12,39,12.10
2017,04,25,12,40,12.10
2017,04,25,12,41,12.10
2017,04,25,12,42,12.00
2017,04,25,12,43,11.90
2017,04,25,12,44,11.90
2017,04,25,12,45,11.90
2017,04,25,12,46,11.90
2017,04,25,12,47,12.00
2017,04,25,12,48,12.00
2017,04,25,12,49,11.90
2017,04,25,12,50,12.00
2017,04,25,12,51,12.10
2017,04,25,12,52,12.20
2017,04,25,12,53,12.30
2017,04,25,12,54,12.30
2017,04,25,12,55,12.30
2017,04,25,12,56,12.20
2017,04,25,12,57,12.10
2017,04,25,12,58,12.10
2017,04,25,12,59,12.10
2017,04,25,13,00,12.10
2017,04,25,13,01,12.10
2017,04,25,13,02,12.10
2017,04,25,13,03,12.20
2017,04,25,13,04,12.20
2017,04,25,13,05,12.20
2017,04,25,13,06,12.20
2017,04,25,13,07,12.10
2017,04,25,13,08,12.10
2017,04,25,13,09,12.00
2017,04,25,13,10,12.00
2017,04,25,13,11,11.90
2017,04,25,13,12,11.90
2017,04,25,13,13,11.90
2017,04,25,13,14,11.80
2017,04,25,13,15,11.80
2017,04,25,13,16,11.90
2017,04,25,13,17,12.00
2017,04,25,13,18,12.10
2017,04,25,13,19,12.20
2017,04,25,13,20,12.30
2017,04,25,13,21,12.30
2017,04,25,13,22,12.30
2017,04,25,13,23,12.30
2017,04,25,13,24,12.30
2017,04,25,13,25,12.30
2017,04,25,13,26,12.40
2017,04,25,13,27,12.40
2017,04,25,13,28,12.40
2017,04,25,13,29,12.50
2017,04,25,13,30,12.60
2017,04,25,13,31,12.60
2017,04,25,13,32,12.70
2017,04,25,13,33,12.70
2017,04,25,13,34,12.60
2017,04,25,13,35,12.70
2017,04,25,13,36,12.70
2017,04,25,13,37,12.70
2017,04,25,13,38,12.70
2017,04,25,13,39,12.70
2017,04,25,13,40,12.80
2017,04,25,13,41,12.70
2017,04,25,13,42,12.70
2017,04,25,13,43,12.70
2017,04,25,13,44,12.70
2017,04,25,13,45,12.70
2017,04,25,13,46,12.80
2017,04,25,13,47,12.80
2017,04,25,13,48,12.80
2017,04,25,13,49,12.80
2017,04,25,13,50,12.80
2017,04,25,13,51,12.80
2017,04,25,13,52,12.80
2017,04,25,13,53,12.80
2017,04,25,13,54,12.80
2017,04,25,13,55,12.80
2017,04,25,13,56,12.80
2017,04,25,13,57,12.80
2017,04,25,13,58,12.80
2017,04,25,13,59,12.80
2017,04,25,14,00,12.80
2017,04,25,14,01,12.80
2017,04,25,14,02,12.80
2017,04,25,14,03,12.80
2017,04,25,14,04,12.80
2017,04,25,14,05,12.80
2017,04,25,14,06,12.90
2017,04,25,14,07,12.90
2017,04,25,14,08,13.00
2017,04,25,14,09,13.10
2017,04,25,14,10,13.20
2017,04,25,14,11,13.20
2017,04,25,14,12,13.20
2017,04,25,14,13,13.20
2017,04,25,14,14,13.20
2017,04,25,14,15,13.10
2017,04,25,14,16,13.10
2017,04,25,14,17,13.20
2017,04,25,14,18,13.20
2017,04,25,14,19,13.20
2017,04,25,14,20,13.20
2017,04,25,14,21,13.20
2017,04,25,14,22,13.20
2017,04,25,14,23,13.20
2017,04,25,14,24,13.20
2017,04,25,14,25,13.20
2017,04,25,14,26,13.30
2017,04,25,14,27,13.30
2017,04,25,14,28,13.30
2017,04,25,14,29,13.30
2017,04,25,14,30,13.30
2017,04,25,14,31,13.30
2017,04,25,14,32,13.40
2017,04,25,14,33,13.40
2017,04,25,14,34,13.40
2017,04,25,14,35,13.30
2017,04,25,14,36,13.20
2017,04,25,14,37,13.20
2017,04,25,14,38,13.20
2017,04,25,14,39,13.20
2017,04,25,14,40,13.30
2017,04,25,14,41,13.20
2017,04,25,14,42,13.20
2017,04,25,14,43,13.30
2017,04,25,14,44,13.30
2017,04,25,14,45,13.30
2017,04,25,14,46,13.30
2017,04,25,14,47,13.30
2017,04,25,14,48,13.30
2017,04,25,14,49,13.30
2017,04,25,14,50,13.20
2017,04,25,14,51,13.30
2017,04,25,14,52,13.30
2017,04,25,14,53,13.30
2017,04,25,14,54,13.30
2017,04,25,14,55,13.30
2017,04,25,14,56,13.40
2017,04,25,14,57,13.30
2017,04,25,14,58,13.40
2017,04,25,14,59,13.40
2017,04,25,15,00,13.40
2017,04,25,15,01,13.40
2017,04,25,15,02,13.40
2017,04,25,15,03,13.40
2017,04,25,15,04,13.50
2017,04,25,15,05,13.40
2017,04,25,15,06,13.40
2017,04,25,15,07,13.40
2017,04,25,15,08,13.40
2017,04,25,15,09,13.40
2017,04,25,15,10,13.50
2017,04,25,15,11,13.50
2017,04,25,15,12,13.60
2017,04,25,15,13,13.50
2017,04,25,15,14,13.40
2017,04,25,15,15,13.40
2017,04,25,15,16,13.40
2017,04,25,15,17,13.40
2017,04,25,15,18,13.40
2017,04,25,15,19,13.40
2017,04,25,15,20,13.40
2017,04,25,15,21,13.50
2017,04,25,15,22,13.50
2017,04,25,15,23,13.50
2017,04,25,15,24,13.50
2017,04,25,15,25,13.60
2017,04,25,15,26,13.50
2017,04,25,15,27,13.50
2017,04,25,15,28,13.60
2017,04,25,15,29,13.70
2017,04,25,15,30,13.80
2017,04,25,15,31,13.80
2017,04,25,15,32,13.70
2017,04,25,15,33,13.70
2017,04,25,15,34,13.70
2017,04,25,15,35,13.70
2017,04,25,15,36,13.70
2017,04,25,15,37,13.60
2017,04,25,15,38,13.60
2017,04,25,15,39,13.50
2017,04,25,15,40,13.50
2017,04,25,15,41,13.60
2017,04,25,15,42,13.60
2017,04,25,15,43,13.60
2017,04,25,15,44,13.60
2017,04,25,15,45,13.60
2017,04,25,15,46,13.70
2017,04,25,15,47,13.80
2017,04,25,15,48,13.80
2017,04,25,15,49,13.80
2017,04,25,15,50,13.80
2017,04,25,15,51,13.70
2017,04,25,15,52,13.60
2017,04,25,15,53,13.50
2017,04,25,15,54,13.50
2017,04,25,15,55,13.50
2017,04,25,15,56,13.50
2017,04,25,15,57,13.40
2017,04,25,15,58,13.40
2017,04,25,15,59,13.30
2017,04,25,16,00,13.30
2017,04,25,16,01,13.40
2017,04,25,16,02,13.40
2017,04,25,16,03,13.40
2017,04,25,16,04,13.40
2017,04,25,16,05,13.50
2017,04,25,16,06,13.50
2017,04,25,16,07,13.50
2017,04,25,16,08,13.50
2017,04,25,16,09,13.60
2017,04,25,16,10,13.50
2017,04,25,16,11,13.50
2017,04,25,16,12,13.50
2017,04,25,16,13,13.50
2017,04,25,16,14,13.60
2017,04,25,16,15,13.60
2017,04,25,16,16,13.60
2017,04,25,16,17,13.70
2017,04,25,16,18,13.70
2017,04,25,16,19,13.70
2017,04,25,16,20,13.70
2017,04,25,16,21,13.80
2017,04,25,16,22,13.70
2017,04,25,16,23,13.70
2017,04,25,16,24,13.70
2017,04,25,16,25,13.80
2017,04,25,16,26,13.80
2017,04,25,16,27,13.80
2017,04,25,16,28,13.70
2017,04,25,16,29,13.70
2017,04,25,16,30,13.60
2017,04,25,16,31,13.60
2017,04,25,16,32,13.60
2017,04,25,16,33,13.60
2017,04,25,16,34,13.50
2017,04,25,16,35,13.50
2017,04,25,16,36,13.50
2017,04,25,16,37,13.40
2017,04,25,16,38,13.40
2017,04,25,16,39,13.40
2017,04,25,16,40,13.30
2017,04,25,16,41,13.30
2017,04,25,16,42,13.20
2017,04,25,16,43,13.20
2017,04,25,16,44,13.20
2017,04,25,16,45,13.20
2017,04,25,16,46,13.20
2017,04,25,16,47,13.20
2017,04,25,16,48,13.20
2017,04,25,16,49,13.20
2017,04,25,16,50,13.20
2017,04,25,16,51,13.10
2017,04,25,16,52,13.10
2017,04,25,16,53,13.10
2017,04,25,16,54,13.10
2017,04,25,16,55,13.10
2017,04,25,16,56,13.10
2017,04,25,16,57,13.10
2017,04,25,16,58,13.20
2017,04,25,16,59,13.20
2017,04,25,17,00,13.20
2017,04,25,17,01,13.20
2017,04,25,17,02,13.20
2017,04,25,17,03,13.20
2017,04,25,17,04,13.20
2017,04,25,17,05,13.20
2017,04,25,17,06,13.20
2017,04,25,17,07,13.20
2017,04,25,17,08,13.10
2017,04,25,17,09,13.10
2017,04,25,17,10,13.10
2017,04,25,17,11,13.10
2017,04,25,17,12,13.10
2017,04,25,17,13,13.10
2017,04,25,17,14,13.10
2017,04,25,17,15,13.10
2017,04,25,17,16,13.10
2017,04,25,17,17,13.10
2017,04,25,17,18,13.10
2017,04,25,17,19,13.10
2017,04,25,17,20,13.10
2017,04,25,17,21,13.10
2017,04,25,17,22,13.20
2017,04,25,17,23,13.10
2017,04,25,17,24,13.10
2017,04,25,17,25,13.10
2017,04,25,17,26,13.00
2017,04,25,17,27,12.90
2017,04,25,17,28,12.90
2017,04,25,17,29,12.90
2017,04,25,17,30,12.80
2017,04,25,17,31,12.80
2017,04,25,17,32,12.80
2017,04,25,17,33,12.80
2017,04,25,17,34,12.80
2017,04,25,17,35,12.80
2017,04,25,17,36,12.80
2017,04,25,17,37,12.70
2017,04,25,17,38,12.70
2017,04,25,17,39,12.70
2017,04,25,17,40,12.70
2017,04,25,17,41,12.70
2017,04,25,17,42,12.70